When you browse on this site, cookies collect data to enhance your experience and personalize the content and advertising you see.
Visit our Privacy Policy to learn more. By continuing to use the site, you agree to this use of cookies and data.
  • In United Kingdom
  • List of Countries
  • For 7 days
  • Water Temperature
  • Weather Map
  • Weather Widgets
  • user-avatar
    Login

    Hourly Weather Swansea

    Today, 9 April, Thursday

    Time Temperature Precipitation Wind Pressure Humidity
    00:00 +12°C° 0 mm 2 mps 766 mmHg 87%
    01:00 +12°C° 0 mm 2 mps 766 mmHg 88%
    02:00 +12°C° 0 mm 2 mps 766 mmHg 89%
    03:00 +12°C° 0 mm 2 mps 766 mmHg 89%
    04:00 +12°C° 0 mm 2 mps 766 mmHg 89%
    05:00 +10°C° 0 mm 3 mps 766 mmHg 89%
    06:00 +10°C° 0 mm 3 mps 766 mmHg 90%
    07:00 +12°C° 0 mm 3 mps 766 mmHg 85%
    08:00 +14°C° 0 mm 3 mps 766 mmHg 80%
    09:00 +17°C° 0 mm 4 mps 766 mmHg 75%
    10:00 +18°C° 0 mm 4 mps 766 mmHg 72%
    11:00 +18°C° 0 mm 4 mps 766 mmHg 69%
    12:00 +19°C° 0 mm 5 mps 766 mmHg 66%
    13:00 +20°C° 0 mm 4 mps 766 mmHg 66%
    14:00 +20°C° 0 mm 4 mps 766 mmHg 65%
    15:00 +20°C° 0 mm 4 mps 765 mmHg 65%
    16:00 +19°C° 0 mm 3 mps 765 mmHg 70%
    17:00 +19°C° 0 mm 3 mps 765 mmHg 74%
    18:00 +18°C° 0 mm 3 mps 765 mmHg 79%
    19:00 +17°C° 0 mm 3 mps 766 mmHg 82%
    20:00 +14°C° 0 mm 3 mps 766 mmHg 85%
    21:00 +13°C° 0 mm 3 mps 766 mmHg 89%
    22:00 +13°C° 0 mm 3 mps 766 mmHg 88%
    23:00 +13°C° 0 mm 3 mps 766 mmHg 88%

    Tomorrow, 10 April, Friday

    Time Temperature Precipitation Wind Pressure Humidity
    00:00 +12°C° 0 mm 3 mps 767 mmHg 88%
    01:00 +12°C° 0 mm 4 mps 766 mmHg 89%
    02:00 +12°C° 0 mm 4 mps 766 mmHg 91%
    03:00 +11°C° 0 mm 4 mps 765 mmHg 92%
    04:00 +11°C° 0 mm 4 mps 766 mmHg 91%
    05:00 +11°C° 0 mm 4 mps 766 mmHg 90%
    06:00 +11°C° 0 mm 4 mps 766 mmHg 88%
    07:00 +12°C° 0 mm 4 mps 766 mmHg 84%
    08:00 +14°C° 0 mm 4 mps 766 mmHg 79%
    09:00 +15°C° 0 mm 4 mps 766 mmHg 74%
    10:00 +17°C° 0 mm 4 mps 766 mmHg 71%
    11:00 +18°C° 0 mm 4 mps 765 mmHg 68%
    12:00 +20°C° 0 mm 5 mps 765 mmHg 65%
    13:00 +20°C° 0 mm 5 mps 765 mmHg 66%
    14:00 +20°C° 0 mm 4 mps 765 mmHg 66%
    15:00 +20°C° 0 mm 4 mps 764 mmHg 66%
    16:00 +20°C° 0 mm 4 mps 764 mmHg 71%
    17:00 +19°C° 0 mm 3 mps 764 mmHg 75%
    18:00 +18°C° 0 mm 3 mps 764 mmHg 80%
    19:00 +17°C° 0 mm 3 mps 764 mmHg 83%
    20:00 +14°C° 0 mm 3 mps 765 mmHg 86%
    21:00 +14°C° 0 mm 2 mps 765 mmHg 89%
    22:00 +12°C° 0 mm 3 mps 765 mmHg 89%
    23:00 +12°C° 0 mm 3 mps 765 mmHg 89%

    Day after tomorrow, 11 April, Saturday

    Time Temperature Precipitation Wind Pressure Humidity
    00:00 +11°C° 0 mm 3 mps 765 mmHg 89%
    01:00 +12°C° 0 mm 2 mps 765 mmHg 88%
    02:00 +12°C° 0 mm 2 mps 765 mmHg 88%
    03:00 +10°C° 0 mm 2 mps 765 mmHg 87%
    04:00 +10°C° 0 mm 2 mps 765 mmHg 87%
    05:00 +11°C° 0 mm 1 mps 765 mmHg 87%
    06:00 +11°C° 0 mm 1 mps 765 mmHg 86%
    07:00 +13°C° 0 mm 1 mps 765 mmHg 82%
    08:00 +15°C° 0 mm 1 mps 765 mmHg 77%
    09:00 +18°C° 0 mm 1 mps 765 mmHg 73%
    10:00 +19°C° 0 mm 1 mps 765 mmHg 70%
    11:00 +20°C° 0 mm 1 mps 765 mmHg 67%
    12:00 +20°C° 0 mm 2 mps 765 mmHg 65%
    13:00 +20°C° 0 mm 2 mps 765 mmHg 65%
    14:00 +20°C° 0 mm 2 mps 764 mmHg 66%
    15:00 +20°C° 0 mm 3 mps 764 mmHg 67%
    16:00 +19°C° 0.1 mm 2 mps 764 mmHg 73%
    17:00 +18°C° 0.1 mm 2 mps 764 mmHg 79%
    18:00 +16°C° 0.1 mm 2 mps 764 mmHg 84%
    19:00 +15°C° 0 mm 2 mps 764 mmHg 87%
    20:00 +14°C° 0 mm 2 mps 764 mmHg 89%
    21:00 +13°C° 0 mm 2 mps 764 mmHg 91%
    22:00 +12°C° 0 mm 2 mps 764 mmHg 91%
    23:00 +12°C° 0 mm 1 mps 764 mmHg 91%

    12 April, Sunday

    Time Temperature Precipitation Wind Pressure Humidity
    00:00 +11°C° 0 mm 1 mps 763 mmHg 90%
    01:00 +11°C° 0 mm 1 mps 763 mmHg 90%
    02:00 +11°C° 0 mm 1 mps 762 mmHg 90%
    03:00 +9°C° 0 mm 0 mps 761 mmHg 90%
    04:00 +9°C° 0 mm 0 mps 761 mmHg 90%
    05:00 +9°C° 0 mm 0 mps 760 mmHg 91%
    06:00 +10°C° 0 mm 1 mps 760 mmHg 91%
    07:00 +12°C° 0 mm 1 mps 759 mmHg 87%
    08:00 +14°C° 0 mm 2 mps 759 mmHg 83%
    09:00 +16°C° 0 mm 2 mps 758 mmHg 78%
    10:00 +16°C° 0.2 mm 3 mps 758 mmHg 75%
    11:00 +17°C° 0.2 mm 3 mps 757 mmHg 72%
    12:00 +18°C° 0.2 mm 3 mps 757 mmHg 69%
    13:00 +18°C° 0.4 mm 3 mps 756 mmHg 69%
    14:00 +18°C° 0.4 mm 3 mps 756 mmHg 68%
    15:00 +18°C° 0.4 mm 3 mps 755 mmHg 67%
    16:00 +17°C° 0.2 mm 3 mps 755 mmHg 71%
    17:00 +17°C° 0.2 mm 3 mps 754 mmHg 76%
    18:00 +16°C° 0.2 mm 3 mps 754 mmHg 80%
    19:00 +14°C° 0.1 mm 3 mps 754 mmHg 82%
    20:00 +13°C° 0.1 mm 3 mps 754 mmHg 84%
    21:00 +12°C° 0.1 mm 3 mps 755 mmHg 86%
    22:00 +12°C° 0.1 mm 4 mps 755 mmHg 87%
    23:00 +11°C° 0.1 mm 4 mps 755 mmHg 89%

    13 April, Monday

    Time Temperature Precipitation Wind Pressure Humidity
    00:00 +11°C° 0.1 mm 4 mps 755 mmHg 91%
    01:00 +10°C° 0 mm 5 mps 756 mmHg 91%
    02:00 +9°C° 0 mm 6 mps 756 mmHg 92%
    03:00 +9°C° 0 mm 7 mps 756 mmHg 93%
    04:00 +9°C° 0 mm 8 mps 757 mmHg 92%
    05:00 +7°C° 0 mm 9 mps 757 mmHg 92%
    06:00 +7°C° 0 mm 10 mps 758 mmHg 91%
    07:00 +7°C° 0 mm 11 mps 759 mmHg 88%
    08:00 +8°C° 0 mm 11 mps 760 mmHg 85%
    09:00 +8°C° 0 mm 11 mps 760 mmHg 82%
    10:00 +9°C° 0 mm 11 mps 761 mmHg 77%
    11:00 +11°C° 0 mm 10 mps 762 mmHg 73%
    12:00 +12°C° 0 mm 10 mps 762 mmHg 68%
    13:00 +12°C° 0 mm 10 mps 762 mmHg 68%
    14:00 +11°C° 0 mm 10 mps 763 mmHg 69%
    15:00 +11°C° 0 mm 10 mps 763 mmHg 69%
    16:00 +9°C° 0 mm 10 mps 763 mmHg 69%
    17:00 +8°C° 0 mm 9 mps 764 mmHg 68%
    18:00 +7°C° 0 mm 9 mps 764 mmHg 68%
    19:00 +6°C° 0 mm 9 mps 765 mmHg 67%
    20:00 +3°C° 0 mm 9 mps 765 mmHg 67%
    21:00 +2°C° 0 mm 10 mps 766 mmHg 67%
    22:00 +1°C° 0 mm 10 mps 766 mmHg 72%
    23:00 +1°C° 0 mm 10 mps 766 mmHg 77%

    14 April, Tuesday

    Time Temperature Precipitation Wind Pressure Humidity
    00:00 0°C° 0 mm 9 mps 766 mmHg 82%
    01:00 0°C° 0 mm 10 mps 766 mmHg 79%
    02:00 0°C° 0 mm 10 mps 766 mmHg 76%
    03:00 0°C° 0 mm 10 mps 765 mmHg 73%
    04:00 0°C° 0 mm 10 mps 765 mmHg 71%
    05:00 0°C° 0 mm 9 mps 765 mmHg 69%
    06:00 0°C° 0 mm 9 mps 765 mmHg 67%
    07:00 +1°C° 0 mm 9 mps 765 mmHg 64%
    08:00 +3°C° 0 mm 9 mps 765 mmHg 61%
    09:00 +5°C° 0 mm 9 mps 765 mmHg 59%
    10:00 +6°C° 0 mm 9 mps 764 mmHg 58%
    11:00 +8°C° 0 mm 10 mps 764 mmHg 58%
    12:00 +9°C° 0 mm 10 mps 764 mmHg 57%
    13:00 +9°C° 0 mm 10 mps 763 mmHg 58%
    14:00 +11°C° 0 mm 9 mps 762 mmHg 59%
    15:00 +11°C° 0 mm 9 mps 762 mmHg 59%
    16:00 +10°C° 0 mm 9 mps 761 mmHg 61%
    17:00 +8°C° 0 mm 9 mps 761 mmHg 63%
    18:00 +7°C° 0 mm 8 mps 760 mmHg 65%
    19:00 +6°C° 0 mm 9 mps 760 mmHg 65%
    20:00 +5°C° 0 mm 9 mps 761 mmHg 66%
    21:00 +3°C° 0 mm 10 mps 761 mmHg 66%
    22:00 +2°C° 0 mm 10 mps 761 mmHg 68%
    23:00 +1°C° 0 mm 10 mps 760 mmHg 70%
    Show more